Date String (YYYY-MM-DD hh:mm:ss) UTC,Instrument flags,Ambient pressure (hPa),Sample flow (lpm),Bypass flow (lpm),Sample temperature (°C),Ambient temperature (°C),ASC tube jacket temperature (°C),LED temperature (°C),Box temperature (°C),Sample RH (%),Span deviation,Mass concentration (μg/m³),Mass concentration (μg/m³),Mass concentration (μg/m³)
DateTimeUTC,F1_M11,P_M11,Q1_M11,Q2_M11,T1_M11,T2_M11,T3_M11,T4_M11,T5_M11,U1_M11,ZSPAN_M11,X2_M11,X0_M11,X1_M11
2023-04-23 10:00:00,,0830.2,5.00,0.00,22.5,20.8,00.0,31.0,24.0,12.3,0000.0,0003.13,0004.27,0002.63
2023-04-23 10:01:00,,0830.2,5.00,0.00,22.5,20.7,00.0,31.0,24.0,12.3,0000.0,0003.13,0004.29,0002.64
2023-04-23 10:02:00,,0830.2,5.01,0.00,22.5,20.8,00.0,31.0,24.0,12.4,0000.0,0003.14,0004.27,0002.64
2023-04-23 10:03:00,,0830.3,5.00,0.00,22.6,21.6,00.0,30.9,24.4,12.3,0000.0,0003.15,0004.31,0002.65
2023-04-23 10:04:00,,0830.2,5.00,0.00,22.7,22.7,00.0,30.9,24.7,12.3,0000.0,0003.15,0004.24,0002.65
2023-04-23 10:05:00,,0830.2,5.00,0.00,22.8,23.1,00.0,30.9,24.8,12.2,0000.0,0003.12,0004.15,0002.63
2023-04-23 10:06:00,,0830.2,4.99,0.00,22.8,22.9,00.0,31.0,24.6,12.2,0000.0,0003.10,0004.09,0002.62
2023-04-23 10:07:00,,0830.2,5.00,0.00,22.8,22.6,00.0,31.0,24.5,12.2,0000.0,0003.10,0004.17,0002.61
2023-04-23 10:08:00,,0830.2,4.99,0.00,22.8,22.2,00.0,31.1,24.4,12.2,0000.0,0003.08,0004.13,0002.60
2023-04-23 10:09:00,,0830.2,5.00,0.00,22.8,21.9,00.0,31.1,24.3,12.2,0000.0,0003.09,0004.12,0002.60
2023-04-23 10:10:00,,0830.3,5.00,0.00,22.7,21.7,00.0,31.1,24.3,12.2,0000.0,0003.10,0004.15,0002.61
2023-04-23 10:11:00,,0830.2,5.00,0.00,22.7,21.5,00.0,31.1,24.2,12.3,0000.0,0003.11,0004.21,0002.62
2023-04-23 10:12:00,,0830.3,5.01,0.00,22.7,21.3,00.0,31.1,24.2,12.2,0000.0,0003.10,0004.18,0002.62
2023-04-23 10:13:00,,0830.3,5.00,0.00,22.7,21.2,00.0,31.1,24.2,12.2,0000.0,0003.11,0004.22,0002.63
2023-04-23 10:14:00,,0830.2,5.01,0.00,22.6,21.1,00.0,31.1,24.1,12.3,0000.0,0003.11,0004.14,0002.65
2023-04-23 10:15:00,,0830.2,5.00,0.00,22.6,21.0,00.0,31.1,24.1,12.3,0000.0,0003.08,0004.03,0002.65
2023-04-23 10:16:00,,0830.2,5.00,0.00,22.6,20.9,00.0,31.0,24.1,12.2,0000.0,0003.12,0004.20,0002.66
2023-04-23 10:17:00,,0830.2,4.99,0.00,22.6,20.9,00.0,31.0,24.0,12.2,0000.0,0003.13,0004.23,0002.66
2023-04-23 10:18:00,,0830.2,4.99,0.00,22.5,20.8,00.0,31.0,24.0,12.2,0000.0,0003.14,0004.23,0002.65
2023-04-23 10:19:00,,0830.2,5.00,0.00,22.5,20.8,00.0,31.0,24.0,12.3,0000.0,0003.14,0004.19,0002.64
2023-04-23 10:20:00,,0830.2,5.00,0.00,22.5,20.7,00.0,31.0,24.0,12.3,0000.0,0003.14,0004.22,0002.64
2023-04-23 10:21:00,,0830.2,5.01,0.00,22.5,21.0,00.0,30.9,24.1,12.2,0000.0,0003.17,0004.54,0002.64
2023-04-23 10:22:00,,0830.3,5.00,0.00,22.6,22.0,00.0,30.9,24.5,12.2,0000.0,0003.19,0004.82,0002.64
2023-04-23 10:23:00,,0830.2,4.99,0.00,22.7,23.0,00.0,30.9,24.8,12.1,0000.0,0003.19,0004.82,0002.64
2023-04-23 10:24:00,,0830.2,5.00,0.00,22.8,23.1,00.0,30.9,24.7,12.0,0000.0,0003.18,0004.77,0002.63
2023-04-23 10:25:00,,0830.2,5.01,0.00,22.8,22.8,00.0,31.0,24.6,12.0,0000.0,0003.18,0004.80,0002.62
2023-04-23 10:26:00,,0830.2,5.00,0.00,22.8,22.5,00.0,31.0,24.5,12.0,0000.0,0003.19,0004.91,0002.60
2023-04-23 10:27:00,,0830.2,5.00,0.00,22.8,22.2,00.0,31.1,24.4,12.0,0000.0,0003.18,0004.90,0002.59
2023-04-23 10:28:00,,0830.2,5.00,0.00,22.8,21.9,00.0,31.1,24.3,12.1,0000.0,0003.18,0004.86,0002.59
2023-04-23 10:29:00,,0830.2,5.01,0.00,22.7,21.7,00.0,31.1,24.3,12.1,0000.0,0003.16,0004.81,0002.58
2023-04-23 10:30:00,,0830.1,5.01,0.00,22.7,21.5,00.0,31.1,24.3,12.0,0000.0,0003.15,0004.79,0002.57
2023-04-23 10:31:00,,0830.1,5.00,0.00,22.7,21.3,00.0,31.1,24.2,12.0,0000.0,0003.14,0004.74,0002.57
2023-04-23 10:32:00,,0830.1,4.99,0.00,22.7,21.2,00.0,31.1,24.2,12.0,0000.0,0003.11,0004.54,0002.56
2023-04-23 10:33:00,,0830.1,4.99,0.00,22.6,21.1,00.0,31.1,24.2,12.0,0000.0,0003.05,0004.17,0002.53
2023-04-23 10:34:00,,0830.1,5.00,0.00,22.6,21.0,00.0,31.1,24.1,12.0,0000.0,0002.97,0004.02,0002.51
2023-04-23 10:35:00,,0830.1,5.01,0.00,22.6,20.9,00.0,31.0,24.1,12.0,0000.0,0002.97,0004.09,0002.50
2023-04-23 10:36:00,,0830.1,5.01,0.00,22.6,20.9,00.0,31.0,24.1,12.0,0000.0,0003.00,0004.94,0002.50
2023-04-23 10:37:00,,0830.1,5.00,0.00,22.5,20.8,00.0,31.0,24.0,12.0,0000.0,0003.00,0005.04,0002.49
2023-04-23 10:38:00,,0830.1,4.99,0.00,22.5,20.8,00.0,31.0,24.0,12.0,0000.0,0002.97,0005.01,0002.50
2023-04-23 10:39:00,,0830.1,4.99,0.00,22.5,20.8,00.0,31.0,24.0,12.0,0000.0,0002.97,0005.79,0002.49
2023-04-23 10:40:00,,0830.2,5.01,0.00,22.5,21.4,00.0,30.9,24.3,12.0,0000.0,0003.01,0005.93,0002.49
2023-04-23 10:41:00,,0830.2,5.01,0.00,22.7,22.4,00.0,30.9,24.6,11.9,0000.0,0003.05,0006.08,0002.49
2023-04-23 10:42:00,,0830.2,4.99,0.00,22.8,23.1,00.0,30.9,24.9,11.8,0000.0,0003.04,0006.09,0002.49
2023-04-23 10:43:00,,0830.3,4.99,0.00,22.8,23.0,00.0,31.0,24.7,11.8,0000.0,0003.00,0006.01,0002.48
2023-04-23 10:44:00,,0830.2,4.99,0.00,22.8,22.7,00.0,31.0,24.6,11.9,0000.0,0003.01,0005.96,0002.48
2023-04-23 10:45:00,,0830.2,5.00,0.00,22.8,22.4,00.0,31.1,24.5,12.0,0000.0,0003.01,0005.91,0002.49
2023-04-23 10:46:00,,0830.2,5.00,0.00,22.8,22.0,00.0,31.1,24.4,12.0,0000.0,0003.01,0005.85,0002.50
2023-04-23 10:47:00,,0830.2,5.00,0.00,22.8,21.7,00.0,31.1,24.3,12.0,0000.0,0002.99,0005.31,0002.50
2023-04-23 10:48:00,,0830.2,5.00,0.00,22.7,21.4,00.0,31.1,24.2,12.1,0000.0,0002.98,0004.85,0002.51
2023-04-23 10:49:00,,0830.3,5.00,0.00,22.6,21.2,00.0,31.1,24.1,12.1,0000.0,0002.98,0004.87,0002.51
2023-04-23 10:50:00,,0830.2,5.00,0.00,22.6,21.0,00.0,31.1,24.0,12.1,0000.0,0003.00,0004.22,0002.51
2023-04-23 10:51:00,,0830.2,5.00,0.00,22.5,20.8,00.0,31.1,24.0,12.2,0000.0,0002.99,0003.94,0002.52
2023-04-23 10:52:00,,0830.2,5.01,0.00,22.5,20.7,00.0,31.0,23.9,12.1,0000.0,0002.95,0003.79,0002.52
2023-04-23 10:53:00,,0830.2,5.00,0.00,22.5,20.7,00.0,31.0,23.9,12.2,0000.0,0002.98,0003.83,0002.55
2023-04-23 10:54:00,,0830.2,5.00,0.00,22.4,20.6,00.0,31.0,23.9,12.2,0000.0,0003.02,0003.96,0002.56
2023-04-23 10:55:00,,0830.2,4.99,0.00,22.4,20.5,00.0,31.0,23.9,12.2,0000.0,0003.03,0003.95,0002.58
2023-04-23 10:56:00,,0830.2,5.00,0.00,22.4,20.5,00.0,30.9,23.8,12.1,0000.0,0003.05,0004.24,0002.60
2023-04-23 10:57:00,,0830.2,4.99,0.00,22.3,20.5,00.0,30.9,23.8,12.1,0000.0,0003.07,0004.32,0002.62
2023-04-23 10:58:00,,0830.2,5.01,0.00,22.4,21.0,00.0,30.8,24.1,12.1,0000.0,0003.08,0004.30,0002.63
2023-04-23 10:59:00,,0830.3,5.01,0.00,22.5,22.2,00.0,30.8,24.5,12.0,0000.0,0003.07,0004.27,0002.64
